{"data":{"norad_id":33056,"intl_designator":"2008-030B","name":"TURKSAT 3A","alt_names":[],"object_type":"PAYLOAD","status":"ACTIVE","operator":null,"country":"TURK","launch_date":"2008-06-12","launch_site_code":"FRGUI","launch_vehicle":null,"mission":null,"orbit_class":"UNKNOWN","rcs_meters":24.7919,"size_class":null,"mass_kg":null,"dimensions":null,"purposes":["comms"],"wikipedia_slug":null,"has_3d_model":false,"image_url":null,"decayed_at":null,"tle_current":{"epoch":"2026-09-19T22:18:13.139136Z","epoch_age_seconds":63800,"freshness":"FRESH","line1":"1 33056U 08030B   26262.92931874  .00000142  00000+0  00000+0 0  9994","line2":"2 33056   0.0439  80.9990 0004387  77.3203 217.0800  1.00270491 53307","mean_motion":1.00270491,"eccentricity":0.0004387,"inclination_deg":0.0439,"raan_deg":80.999,"arg_perigee_deg":77.3203,"mean_anomaly_deg":217.08,"bstar":0,"rev_number":5330,"period_min":1436.1154369933,"perigee_km":35768.459893212,"apogee_km":35805.455547319,"semimajor_km":42165.094720265,"source":"CELESTRAK","updated_at":"2026-09-20T09:00:35.133325Z"}}}